Regional Weather Roundup
Issued by NWS Mobile, AL

Home | Current Version | Previous Version | Text Only | Print | Product List | Glossary On
Versions: 1 2 3 4 5 6 7 8 9 10 11 12 13 14 15 16 17 18 19 20 21 22 23 24 25 26 27 28 29 30 31 32 33 34 35 36 37 38 39 40 41 42 43 44 45 46 47 48 49 50
000
ASUS44 KMOB 240916
RWRMOB
REGIONAL WEATHER ROUNDUP
NATIONAL WEATHER SERVICE MOBILE AL
400 AM CDT SUN MAY 24 2015

ALZ061>064-241000-
COASTAL ALABAMA


CITY           SKY/WX    TMP DP  RH WIND       PRES   REMARKS
MOBILE REG APT PTCLDY    74  72  93 E8        30.14S
BROOKLEY FIELD PTCLDY    76  73  91 E8        30.15R
GULF SHORES    CLOUDY    77  73  86 SE9       30.14R

$$

ALZ051>060-241000-
INTERIOR SOUTHWEST AND SOUTH CENTRAL ALABAMA


CITY           SKY/WX    TMP DP  RH WIND       PRES   REMARKS
ANDALUSIA/OPP  CLEAR     73  62  68 SE6       30.19R
EVERGREEN      PTCLDY    64  62  93 CALM      30.19R
FLORALA        SUNNY     69  63  81 SE3       30.21R
GREENVILLE     FAIR      68  59  73 SE5       30.20R

$$

FLZ001>006-241000-
WESTERN FLORIDA PANHANDLE


CITY           SKY/WX    TMP DP  RH WIND       PRES   REMARKS
CRESTVIEW      CLEAR     71  65  81 E5        30.19R
DESTIN         PTCLDY    77  70  79 E10       30.16R
DUKE FIELD     NOT AVBL
MARY ESTHER    MOCLDY    79  70  73 SE18G26   30.14R
MILTON           N/A    N/A N/A N/A MISG      30.16R
PENSACOLA      CLOUDY    76  73  91 E6        30.15R
NAS PENSACOLA  MOCLDY    80  72  76 E17G24    30.14R
VALPARAISO     PTCLDY    76  69  78 E9        30.16R

$$

...MARINE OBSERVATIONS...

STATION/POSITION TIME  SKY/WX   TEMP    WIND        PRES    VSBY
                                AIR SEA DIR/SP/G
                 (UTC)          (F)     (DEG/KT/KT) (MB)    (MI)
PASCAGOULA       0800            79     140/ 14/ 18 1019.6F
PETIT BOIS ISL   0800            79     140/ 14/ 17 1020.2S
E DAUPHIN ISLAND 0900            79     130/ 17/ 18 1019.9S
MIDDLE BAY LIGHT 0800            78     130/ 14     1020.0R
USCG MOBILE BAY  0800            76 82  120/  8/  9 1019.5R
STATE DOCKS      0800            75 80              1020.3S
MEAHER PARK      0900            74     110/  2     1020.6R
FORT MORGAN      0800            79     150/ 17/ 19 1019.7S
12 S ORANGE BCH  0850            80 80  140/ 12/ 16 1019.6R
WVE H/P(F/S)=  3/ 5

PENSACOLA BAY    0800            80 82  110/  2/  6 1020.7R
64 S DAUPHIN ISL 0850            79 80  130/ 16/ 19 1019.9S
WVE H/P(F/S)=  4/ 6

67 S FORT MORGAN 0830            79     130/ 17     1019.6S
115 SE PENSACOLA 0850            80 81  120/ 16/ 17 1020.4S
WVE H/P(F/S)=  2/ 4

MID GULF/42001   0850            82 82  120/ 16/ 19 1018.0S
WVE H/P(F/S)=  3/ 5

EAST GULF/42003  0850            81 82  110/ 12/ 16 1018.8F
WVE H/P(F/S)=  3/ 6


$$

...NEARBY LOCATIONS

CITY           SKY/WX    TMP DP  RH WIND       PRES   REMARKS
GULFPORT       MOCLDY    80  72  76 SE14      30.10S
BILOXI         MOCLDY    79  74  83 S13       30.11S
PASCAGOULA     PTCLDY    76  72  87 SE6       30.12S
HATTIESBURG    CLEAR     68  66  93 CALM      30.13F
LAUREL         CLEAR     66  64  94 E3        30.14S
MERIDIAN       PTCLDY    65  62  90 CALM      30.15S
MERIDIAN NAS   CLEAR     67  61  81 SE6       30.16S
MONTGOMERY     CLEAR     65  58  78 E5        30.22R
MAXWELL AFB    CLEAR     71  60  69 E10       30.21R
TROY           CLEAR     70  62  76 E8        30.22R
FORT RUCKER    PTCLDY    71  64  78 E3        30.20R
DALEVILLE      PTCLDY    71  65  81 E9        30.20S
DOTHAN         CLOUDY    71  65  81 E9        30.24S

$$

...OTHER SURROUNDING LOCATIONS...

CITY           SKY/WX    TMP DP  RH WIND       PRES   REMARKS
BIRMINGHAM     CLEAR     70  53  54 SE7       30.25R
TUSCALOOSA     PTCLDY    71  54  54 E5        30.19R
COLUMBUS GA    MOCLDY    66  61  82 E6        30.27R
PANAMA CITY    NOT AVBL
TALLAHASSEE    PTCLDY    74  68  81 E10       30.22S
BATON ROUGE    CLEAR     72  70  93 E6        30.07S
NEW ORLEANS    PTCLDY    77  72  84 SE9       30.08F
SLIDELL        PTCLDY    77  74  90 SE7       30.09S
JACKSON        CLEAR     69  65  86 SE5       30.12S
MCCOMB         PTCLDY    70  70 100 SE7       30.10S FOG

$$

...SURROUNDING MARINE OBSERVATIONS...

STATION/POSITION TIME  SKY/WX   TEMP    WIND        PRES    VSBY
                                AIR SEA DIR/SP/G
                 (UTC)          (F)     (DEG/KT/KT) (MB)    (MI)
WAVELAND         0800            80 79  160/ 18/ 21 1019.3S
PASCAGOULA RGN A 0800            79     140/  9/ 14 1019.4F
PASCAGOULA PORT  0800               81                N/A
GRAND ISLE       0800            80 82   80/ 11/ 15 1018.7F
SOUTHWEST PASS   0900            81     140/ 16/ 17 1019.0S
PILOT STATION E  0800            80 74  150/ 11/ 19 1019.3S
SHELL BEACH      0800            79 82  130/  9/ 13 1018.4F
PANAMA CITY      0800            75 83   90/  8/ 15 1021.0F
APALACHICOLA     0800            79 81  130/ 13/ 17 1021.7F
TYNDALL TOWER C  0900            79     120/ 23/ 24 1021.4F
S APLCHCLA/42036 0850            80 80  120/ 16/ 19 1021.1R
WVE H/P(F/S)=  4/ 5


$$




USA.gov is the U.S. government's official web portal to all federal, state and local government web resources and services.